Location: Unspecified
(48.2082°N, 0.0000°E)
Time: 04:17:16
(UTC+00:00)

Transit 4A - Pass Details

Date: 20 June 2019
Orbit: 862 x 982 km, 66.8° (Epoch: 20 July)

Event Time Altitude Azimuth Distance (km) Brightness Sun altitude
Rises 14:06:46 0° 317° (NW) 3,694 11.1 55.0°
Reaches altitude 10° 14:10:25 10° 337° (NNW) 2,746 10.4 54.5°
Maximum altitude 14:14:28 17° 17° (NNE) 2,269 9.9 53.9°
Drops below altitude 10° 14:18:30 10° 56° (NE) 2,727 10.1 53.3°
Sets 14:22:06 0° 76° (ENE) 3,657 10.7 52.8°
